TimeCDT,TemperatureF,Dew PointF,Humidity,Sea Level PressureIn,VisibilityMPH,Wind Direction,Wind SpeedMPH,Gust SpeedMPH,PrecipitationIn,Events,Conditions,WindDirDegrees,DateUTC
12:56 AM,77.0,69.1,76,29.87,10.0,Calm,Calm,-,N/A,,Clear,0,2013-09-01 05:56:00
1:56 AM,75.9,70.0,82,29.86,10.0,SSW,3.5,-,N/A,,Clear,210,2013-09-01 06:56:00
2:56 AM,75.0,71.1,87,29.87,10.0,Calm,Calm,-,N/A,,Clear,0,2013-09-01 07:56:00
3:56 AM,75.0,71.1,87,29.86,10.0,Calm,Calm,-,N/A,,Clear,0,2013-09-01 08:56:00
4:56 AM,73.9,71.1,91,29.87,10.0,Calm,Calm,-,N/A,,Clear,0,2013-09-01 09:56:00
5:56 AM,73.0,71.1,93,29.89,10.0,Calm,Calm,-,N/A,,Clear,0,2013-09-01 10:56:00
6:56 AM,73.9,71.1,91,29.90,9.0,Calm,Calm,-,N/A,,Clear,0,2013-09-01 11:56:00
7:56 AM,77.0,72.0,84,29.92,10.0,Calm,Calm,-,N/A,,Clear,0,2013-09-01 12:56:00
8:56 AM,82.0,72.0,71,29.93,10.0,Variable,5.8,-,N/A,,Clear,0,2013-09-01 13:56:00
9:56 AM,84.9,72.0,65,29.94,10.0,Variable,5.8,-,N/A,,Scattered Clouds,0,2013-09-01 14:56:00
10:56 AM,88.0,70.0,55,29.93,10.0,Variable,6.9,-,N/A,,Clear,0,2013-09-01 15:56:00
11:56 AM,91.0,69.1,48,29.91,10.0,West,6.9,-,N/A,,Clear,260,2013-09-01 16:56:00
12:56 PM,93.0,66.9,42,29.90,10.0,Variable,6.9,-,N/A,,Scattered Clouds,0,2013-09-01 17:56:00
1:56 PM,95.0,66.0,38,29.88,10.0,WSW,8.1,-,N/A,,Scattered Clouds,250,2013-09-01 18:56:00
2:56 PM,95.0,64.9,37,29.86,10.0,Variable,4.6,-,N/A,,Partly Cloudy,0,2013-09-01 19:56:00
3:56 PM,97.0,64.0,34,29.83,10.0,Variable,3.5,-,N/A,,Clear,0,2013-09-01 20:56:00
4:56 PM,96.1,63.0,33,29.82,10.0,Variable,4.6,-,N/A,,Clear,0,2013-09-01 21:56:00
5:56 PM,96.1,64.0,35,29.81,10.0,SW,5.8,-,N/A,,Scattered Clouds,230,2013-09-01 22:56:00
6:56 PM,93.0,64.0,38,29.81,10.0,Variable,3.5,-,N/A,,Clear,0,2013-09-01 23:56:00
7:56 PM,86.0,66.0,51,29.83,10.0,Calm,Calm,-,N/A,,Clear,0,2013-09-02 00:56:00
8:56 PM,82.0,66.9,60,29.84,10.0,Calm,Calm,-,N/A,,Clear,0,2013-09-02 01:56:00
9:56 PM,84.0,69.1,61,29.87,10.0,Variable,3.5,-,N/A,,Clear,0,2013-09-02 02:56:00
10:56 PM,81.0,70.0,69,29.88,10.0,Calm,Calm,-,N/A,,Clear,0,2013-09-02 03:56:00
11:56 PM,79.0,71.1,77,29.88,10.0,Variable,4.6,-,N/A,,Clear,0,2013-09-02 04:56:00